Location: Escondido Hill
(38.9119°N, 104.7815°W)
Time: 09:41:34
(UTC-07:00)

N. Korean satellite - Pass Details

Date: 24 October 2019
Orbit: 456 x 506 km, 97.2° (Epoch: 21 November)

Event Time Altitude Azimuth Distance (km) Brightness Sun altitude
Rises 18:39:42 0° 189° (S) 2,456 10.4 -6.8°
Reaches altitude 10° 18:41:54 10° 201° (SSW) 1,591 9.6 -7.2°
Maximum altitude 18:44:54 29° 263° (W) 877 8.9 -7.8°
Drops below altitude 10° 18:47:57 10° 325° (NW) 1,617 9.6 -8.4°
Sets 18:50:13 0° 337° (NNW) 2,505 10.4 -8.8°
